Regional Weather Roundup
Issued by NWS

Home | Current Version | Previous Version | Graphics & Text | Print | Product List | Glossary Off
Versions: 1 2 3 4 5 6 7 8 9 10 11 12 13 14 15 16 17 18 19 20 21 22 23 24 25 26 27 28 29 30 31 32 33 34 35 36 37 38 39 40 41 42 43 44 45 46 47 48 49 50

000
ASUS43 KMKX 220800
RWRWI

WISCONSIN REGIONAL WEATHER ROUNDUP
NATIONAL WEATHER SERVICE MILWAUKEE/SULLIVAN WI
200 AM CST MON DEC 22 2014

NOTE: "FAIR" INDICATES FEW OR NO CLOUDS BELOW 12,000 FEET WITH NO
SIGNIFICANT WEATHER AND/OR OBSTRUCTIONS TO VISIBILITY.

WIZ001-002-006>008-014>016-023>028-220900-
NORTHWEST WISCONSIN

CITY           SKY/WX    TMP DP  RH WIND       PRES   REMARKS
SUPERIOR ARPT  DRIZZLE   35  34  95 S3        29.74S
ASHLAND        CLOUDY    36  33  89 S5        29.77F WCI  32
HAYWARD        LGT SNOW  34  31  88 S7        29.75F FOG     WCI  28
SIREN          MIX PCPN  34  33  97 SE8       29.73S WCI  27
CUMBERLAND     LGT SNOW  32  32 100 SE7       29.74S WCI  26
RICE LAKE      MIX PCPN  33  33  99 SE8       29.77F WCI  26
CHETEK         LGT RAIN  34  34  98 SE9       29.77S WCI  27
LADYSMITH      DRIZZLE   35  34  97 SE9       29.80F WCI  28
EAU CLAIRE     NOT AVBL
MENOMONIE      LGT RAIN  36  34  95 SE9       29.78S WCI  29
NEW RICHMOND   CLOUDY    36  36 100 S12       29.73F WCI  28
OSCEOLA        CLOUDY    37  37 100 SE9       29.75F WCI  30
$$

WIZ003>005-009-010-017-018-220900-
NORTH CENTRAL WISCONSIN

CITY           SKY/WX    TMP DP  RH WIND       PRES   REMARKS
MANITOWISH WTR LGT SNOW  32  32 100 S10       29.79F WCI  24
ARBOR VITAE    CLOUDY    34  32  94 S10G17    29.81S FOG     WCI  26
WOODRUFF       CLOUDY    34  32  94 S10G17    29.81S FOG     WCI  26
RHINELANDER    CLOUDY    32  31  96 S8        29.83F FOG     WCI  25
EAGLE RIVER    CLOUDY    32  32 100 S7        29.82F FOG     WCI  26
LAND O LAKES   CLOUDY    33  32  96 S9        29.82F WCI  25
PHILLIPS       CLOUDY    33  32  97 S12G17    29.79F FOG     WCI  24
TOMAHAWK       CLOUDY    32  31  98 SE3       29.83F FOG
MEDFORD        MIX PCPN  32  32  99 S12       29.82S WCI  23
MERRILL        CLOUDY    33  33 100 S7        29.85S FOG     WCI  27
$$

WIZ029-030-035-036-043>047-220900-
CENTRAL WISCONSIN

CITY           SKY/WX    TMP DP  RH WIND       PRES   REMARKS
WAUSAU         LGT SNOW  33  31  92 SE10      29.86S FOG     WCI  25
MOSINEE        LGT SNOW  32  32 100 S10       29.87S WCI  24
MARSHFIELD     LGT SNOW  34  32  92 S10       29.84S FOG     WCI  26
STEVENS POINT  MIX PCPN  32  30  93 S8        29.88F WCI  25
WAUPACA        CLOUDY    37  31  81 S9        29.92F WCI  30
WAUTOMA        NOT AVBL
WISC RAPIDS    CLOUDY    35  30  82 S8        29.88F WCI  29
CAMP DOUGLAS   CLOUDY    34  34 100 SE7       29.86F WCI  28
$$

WIZ011>013-019>022-031-037>040-048>050-220900-
NORTHEAST WISCONSIN

CITY           SKY/WX    TMP DP  RH WIND       PRES   REMARKS
ANTIGO         CLOUDY    31  31  99 S12       29.87S FOG     WCI  22
SHAWANO        CLOUDY    37  31  81 S6        29.93S WCI  32
OCONTO         CLOUDY    35  31  87 S5        29.95S WCI  31
STURGEON BAY   CLOUDY    36  30  80 S14       29.98S WCI  27
GREEN BAY      CLOUDY    35  31  85 S10       29.95S WCI  27
MANITOWOC      NOT AVBL
APPLETON       CLOUDY    34  30  86 S10G17    29.93S WCI  26
CLINTONVILLE   CLOUDY    34  30  86 S9        29.92F WCI  26
OSHKOSH        CLOUDY    35  29  78 S13       29.93F WCI  26
$$

WIZ032>034-041-042-053>061-220900-
SOUTHWEST WISCONSIN

CITY           SKY/WX    TMP DP  RH WIND       PRES   REMARKS
LA CROSSE      CLOUDY    38  33  82 S13       29.83S WCI  30
SPARTA         CLOUDY    36  32  87 SE14      29.85S WCI  27
VIROQUA        CLOUDY    33  33 100 SE12G18   29.83S WCI  25
BOSCOBEL       CLOUDY    37  31  78 VRB6      29.87F WCI  32
PRAIRIE DU CHI CLOUDY    36  31  82 SE8       29.85S WCI  30
PLATTEVILLE    CLOUDY    35  32  90 SE13      29.87F WCI  26
$$

WIZ056-057-062-063-064-067-068-220900-
SOUTH CENTRAL WISCONSIN

CITY           SKY/WX    TMP DP  RH WIND       PRES   REMARKS
REEDSBURG      CLOUDY    34  31  88 S6        29.88F WCI  29
BARABOO/DELLS  CLOUDY    34  30  85 S10       29.89S WCI  26
LONE ROCK      NOT AVBL
MINERAL POINT  CLOUDY    34  32  93 SE9       29.87S FOG     WCI  26
MADISON        CLOUDY    35  29  78 S14       29.91S WCI  26
MIDDLETON      CLOUDY    36  31  82 S9        29.91S WCI  29
WATERTOWN      CLOUDY    33  31  90 SE8       29.94S WCI  26
MONROE         CLOUDY    32  32 100 S13       29.90S WCI  22
JANESVILLE     CLOUDY    36  30  80 S12       29.93F WCI  27
$$

WIZ051-052-058>065-066-070>072-220900-
SOUTHEAST WISCONSIN

CITY           SKY/WX    TMP DP  RH WIND       PRES   REMARKS
MILWAUKEE      CLOUDY    34  28  79 S8        29.98F WCI  27
WAUKESHA       CLOUDY    32  28  86 SE9       29.97S WCI  24
MILWAUKEE/TIMM CLOUDY    34  28  80 SE8       29.98F WCI  27
RACINE         CLOUDY    34  29  82 S12       30.00S WCI  25
BURLINGTON     CLOUDY    32  28  85 S8        29.97S WCI  24
KENOSHA        CLOUDY    33  28  81 S9        29.98S HAZE    WCI  25
FOND DU LAC    CLOUDY    35  29  78 S13       29.94F WCI  26
SHEBOYGAN      CLOUDY    35  30  82 S10G18    29.97F WCI  27
WEST BEND      CLOUDY    34  28  80 SE5       29.96S WCI  30
JUNEAU         CLOUDY    33  30  88 SE10      29.94F WCI  25
$$

LSZ147-162-220900-
LAKE SUPERIOR

STATION/POSITION TIME  TEMP    WIND        PRES    WAVE
                       AIR SEA DIR/SP/G            HT/PER
                 (UTC) (F)     (DEG/KT/KT) (MB)    (FT/S)
DEVILS ISLAND    0700   36     150/  9/ 13 1009.0F
PORT WING        0700   37     160/  3/  5 1008.1
SAXON HARBOR     0700   38     180/  3/  7 1008.5S
$$

LMZ867-665-643>646-220900-
LAKE MICHIGAN

STATION/POSITION TIME  TEMP    WIND        PRES    WAVE
                       AIR SEA DIR/SP/G            HT/PER
                 (UTC) (F)     (DEG/KT/KT) (MB)    (FT/S)
CHAMBERS ISLAND  0700   37     170/  6/ 13 1014.9S
NORTHPORT PIER   0700   36     150/ 14/ 21 1014.9F
SISTER BAY       0713          170/ 16/ 23   N/A
ALGOMA LAKESHORE 0715          220/ 24/ 28   N/A
KEWAUNEE LAKESHO 0700   36     190/ 13/ 16 1014.4F
SHEBOYGAN LAKESH 0700   37 36  180/ 26/ 29 1015.7F
PORT WASHINGTON  0700   37     180/ 15/ 18 1016.3F
MILWAUKEE LAKESH 0700   36     160/ 12/ 14   N/A
KENOSHA   LAKESH 0700   35     170/ 18/ 21 1015.2F
$$

TC  - TEMPERATURE IN CELSIUS
VSB - VISIBILITY IN STATUTE MILES
WCI - WIND CHILL INDEX
HX  - HEAT INDEX




USA.gov is the U.S. government's official web portal to all federal, state and local government web resources and services.